Home > Time Zones > World Clock > Weather > Italy > Monza > Past weeks

Flag for Italy Weather past 2 weeks in Monza, Italy

Now
64 °F

Passing clouds.


Feels Like: 64 °F
Forecast: 65 / 82 °F
Wind: 2 mph from North

Location: Milan / Linate

Current Time: Jul 31, 2014 at 5:34:05 AM

Latest Report: Jul 31, 2014 at 4:50 AM


Visibility: N/A

Pressure: 29.77 "Hg

Humidity: 100%

Dew point: 64 °F

Location of MonzaLocation

Historic Weather in Monza — Graph

°F

Monza temperature yesterday

Maximum temperature yesterday: 73 °F (at 5:20 PM)
Minimum temperature yesterday: 61 °F (at 12:50 AM)
Average temperature yesterday: 66 °F

Past Weeks' High & Low Weather Summary

 TemperatureHumidityPressure
High90 °F (Jul 17, 5:20 PM)100% (Jul 21, 11:20 PM)30.12 "Hg (Jul 21, 11:20 PM)
Low61 °F (Jul 29, 4:50 PM)38% (Jul 16, 4:20 PM)29.65 "Hg (Jul 30, 5:50 AM)
Average73 °F76%29.89 "Hg
* Reported Jul 16 4:20 AM — Jul 31 4:20 AM, Monza, Weather by CustomWeather, © 2014

Note: Actual official high and low records may vary slightly from our data, if they occured in-between our weather recording intervals... More about our weather records

Advertising

Monza weather history for previous 24 hours

 ConditionsComfort  
Time TempWeatherWind HumidityBarometerVisibility
4:20 AM
Jul 31
64 °FPassing clouds.3 mph100%29.77 "HgN/A
3:50 AM64 °FPassing clouds.No wind100%29.77 "HgN/A
3:20 AM64 °FPassing clouds.2 mph100%29.77 "HgN/A
2:50 AM64 °FPassing clouds.2 mph100%29.77 "HgN/A
2:20 AM66 °FPassing clouds.3 mph94%29.77 "HgN/A
1:50 AM64 °FPassing clouds.3 mph100%29.77 "HgN/A
1:20 AM66 °FPassing clouds.5 mph88%29.77 "HgN/A
12:50 AM66 °FPassing clouds.3 mph94%29.77 "HgN/A
12:20 AM66 °FPassing clouds.3 mph88%29.77 "HgN/A
11:50 PM
Jul 30
68 °FPassing clouds.No wind83%29.77 "HgN/A
11:20 PM70 °FPassing clouds.1 mph73%29.77 "HgN/A
10:50 PM70 °FPassing clouds.5 mph73%29.77 "HgN/A
10:20 PM70 °FPassing clouds.2 mph83%29.77 "HgN/A
9:50 PM70 °FScattered clouds.2 mph83%29.77 "HgN/A
9:20 PM70 °FScattered clouds.2 mph78%29.77 "HgN/A
8:50 PM70 °FSunny.3 mph78%29.74 "Hg10 mi
8:20 PM70 °FSunny.2 mph78%29.74 "Hg10 mi
7:50 PM70 °FPassing clouds.3 mph78%29.74 "HgN/A
7:20 PM72 °FPassing clouds.5 mph73%29.74 "HgN/A
6:50 PM73 °FPassing clouds.1 mph69%29.74 "HgN/A
6:20 PM73 °FPassing clouds.2 mph65%29.74 "HgN/A
5:50 PM73 °FScattered clouds.3 mph65%29.74 "HgN/A
5:20 PM73 °FScattered clouds.2 mph65%29.74 "HgN/A
4:50 PM72 °FScattered clouds.2 mph73%29.74 "HgN/A
4:20 PM70 °FPartly sunny.2 mph78%29.77 "HgN/A
3:50 PM70 °FPartly sunny.3 mph78%29.77 "HgN/A
3:20 PM68 °FBroken clouds.3 mph83%29.77 "HgN/A
2:50 PM70 °FBroken clouds.1 mph78%29.74 "HgN/A
2:20 PM68 °FLight rain. Broken clouds.5 mph83%29.74 "HgN/A
1:50 PM68 °FLight rain. Broken clouds.3 mph83%29.74 "HgN/A
1:20 PM68 °FLight rain. Broken clouds.5 mph83%29.74 "HgN/A
12:50 PM70 °FBroken clouds.1 mph73%29.74 "HgN/A
12:20 PM70 °FPartly sunny.2 mph73%29.71 "HgN/A
11:50 AM68 °FPartly sunny.3 mph78%29.71 "HgN/A
11:20 AM66 °FPartly sunny.3 mph83%29.68 "HgN/A
10:50 AM66 °FPartly sunny.5 mph83%29.68 "HgN/A
10:20 AM64 °FPartly sunny.6 mph94%29.68 "HgN/A
9:50 AM64 °FPartly sunny.3 mph100%29.65 "HgN/A
9:20 AM64 °FPartly sunny.5 mph94%29.65 "HgN/A
8:50 AM63 °FPartly sunny.6 mph100%29.65 "HgN/A
8:20 AM63 °FPartly sunny.3 mph100%29.65 "HgN/A
7:50 AM63 °FPartly sunny.2 mph100%29.65 "HgN/A
7:20 AM63 °FPartly sunny.5 mph100%29.65 "HgN/A
6:50 AM61 °FPassing clouds.3 mph100%29.65 "HgN/A
6:20 AM61 °FPassing clouds.1 mph100%29.65 "HgN/A
5:50 AM61 °FClear.2 mph100%29.65 "Hg10 mi
5:20 AM61 °FPassing clouds.5 mph100%29.68 "HgN/A
Weather by CustomWeather, © 2014

See weather overviewHow to use our weather pages